Reflectivity
-20 -20 -20 -20 -20 -20 -20 -20 -20 -20 -20 -20 -20 -20 -20 -20 -20 -20 -20 -20 -20 -20 -20 -20 -20 -20 -20 -20 -20 -20 -20 -20 -20 -20 -20 -20 4 2 -20 -20 12 11 -13
-20 -20 -20 -20 -20 -20 -20 -20 -20 -20 -20 -20 -16 -20 -20 -20 -20 -20 -20 -20 -20 -20 -20 -20 -20 -8 -20 -20 -20 -20 -20 -20 -20 -20 -20 -20 -20 -18 -20 -20 12 15 9
-20 -20 -20 -20 -20 -20 -20 -20 -20 -20 -20 -20 -20 -20 -20 -20 -20 -20 -20 -20 -20 -20 -20 3 5 -20 -20 -20 -20 -20 -20 -20 -20 -20 -20 -20 -20 0 -20 -20 13 -3 -2
-20 -20 -20 -20 -20 -20 -20 -20 -20 -20 -20 -20 -20 -18 -20 -20 -20 -20 -20 -20 -1 -20 9 -20 -4 -20 -20 -20 -20 -20 -20 -20 -20 -20 -20 -20 -20 -9 -20 -20 -20 -6 -20
-20 -20 -20 -20 -20 -20 -20 -20 -20 -20 -20 -20 -20 -20 -20 -20 -20 -20 -20 -20 -14 -10 -20 -20 -20 -20 -20 -20 -20 16 -20 5 -14 -20 -20 -20 -20 -20 -20 -4 -18 -20 -20
-20 -20 -20 -20 -20 -20 -20 -20 -20 -20 -20 -20 -20 -20 -20 -20 19 -15 -14 -20 -20 -20 -3 -9 -20 -20 -20 -20 -20 -12 -2 -20 -20 -20 -20 6 1 -20 -20 -17 -20 -20 -13
-20 -20 -20 -20 -20 -20 -20 -20 -20 -20 -20 -20 -20 -20 -20 -20 -20 -19 -15 0 -20 -20 -20 -13 -20 -20 -20 -20 -20 -20 -3 11 -20 -20 -19 -20 20 14 25 22 22 24 27
-20 -20 -20 -20 -20 -20 -20 -20 -20 -20 -20 -20 -20 -20 -15 -20 -20 -20 -20 -20 -20 7 -20 -20 -20 -20 -20 -20 -20 -20 -20 -20 -20 -20 -20 -20 27 -9 7 24 11 8 -17
-20 -20 -20 -20 -20 -20 -20 -20 -20 -20 -20 -20 -20 -20 -20 -20 -20 -20 -20 -20 -15 -10 -20 -14 -20 -20 -20 -20 -20 -20 -20 -20 -20 -20 -20 -20 25 -16 -20 -12 8 -12 -20
-20 -20 -20 -20 -20 -20 -20 -20 -20 -20 -20 -20 -20 -20 -20 -20 -20 -20 -20 -20 -20 -20 -20 -20 -20 -20 -20 -20 -20 -20 -20 -20 -20 -20 -20 -20 26 -20 -20 -20 -20 1 -20
-20 -20 -20 -20 -20 -20 -20 -20 -20 -20 -20 -20 -20 -20 -20 -20 -20 -20 -20 -20 -20 -20 -20 -20 -16 -20 -20 -20 -20 -20 -20 -20 -20 -20 16 -7 27 5 -8 -15 -20 -20 -20
-20 -20 -20 -20 -20 -20 -20 -20 -20 -20 -20 -20 -20 -20 -20 -20 -20 -20 -20 -20 -20 -20 -20 -20 -20 -20 -20 -20 -20 -20 -20 -20 -20 -16 -20 -16 -1 -20 -2 -20 -20 -20 -20
-20 -20 -20 -20 -20 -20 -20 -20 -20 -20 -20 -20 -20 -20 -20 -20 -20 -20 -20 -20 -20 -20 -20 -20 -20 -20 -20 -20 -20 -20 -20 -20 -20 -20 -19 -10 3 14 -11 -20 -20 -20 -20
-20 -20 -20 -20 -20 -20 -20 -20 -20 -20 -20 -20 -20 -20 -20 -20 -20 -20 -20 7 14 3 -18 -20 -20 -20 -20 -20 -20 -4 -20 -20 -20 -20 -20 -20 -20 -20 20 -20 -20 -20 -20
-20 -20 -20 -20 -20 -20 -20 -20 -20 -20 -20 -20 -20 -20 -20 -20 -20 -20 -20 -20 -1 12 -15 -9 -20 -20 -20 -20 -20 -20 -20 -2 -20 -20 -20 3 -20 -20 14 -20 -20 -20 -20
-20 -20 -20 -20 -20 -20 -20 -20 -20 -20 -20 -20 -20 -20 -20 -20 -20 -20 -20 -20 -20 -20 7 19 -16 -20 -20 -20 -20 -20 -14 -17 -11 -20 -20 -20 -20 -20 -20 -20 -13 -20 -11
-20 -20 -20 -20 -20 -20 -20 -20 -20 -20 -20 -20 -20 -20 -20 -20 -20 -20 -20 -20 -20 -20 -20 17 24 21 -20 -20 -20 -20 -20 -20 -20 -20 -20 -20 -20 -20 -20 -20 -20 13 -20
-20 -20 -20 -20 -20 -20 -20 -20 -20 -20 -20 -20 -20 -20 -20 -20 -20 -20 -20 -20 -20 -20 -20 -20 5 25 18 -3 13 -13 -20 -20 -20 -20 -17 -20 -20 -20 -20 -20 -20 -6 -13
-20 -20 -20 -20 -20 -20 -20 -20 -20 -20 -20 -20 -20 -20 -20 -20 -20 -20 -20 -20 -20 -20 -20 -20 -5 -17 5 23 -11 3 10 -20 -20 -7 -3 -17 -20 -19 -20 -20 -20 -20 -20
-20 -20 -20 -20 -20 -20 -20 -20 -20 -20 -20 -20 -20 -20 -20 -20 -20 -20 -20 -20 -20 -20 -20 -20 -20 -1 -15 -14 24 17 24 -20 -20 -9 11 -4 15 -9 -20 -19 -20 -20 -20
-20 -20 -20 -20 -20 -20 -20 -20 -20 -20 -20 -20 -20 -20 -20 -20 -20 -20 -20 -20 -20 -20 -20 -20 -20 -17 -14 6 -20 28 16 -20 -15 -20 -4 -11 -2 9 3 -9 -20 -20 -20
-20 -20 -20 -20 -20 -20 -20 -20 -20 -20 -20 -20 -20 -20 -20 -20 -20 -20 -20 -20 -20 -20 -20 -20 -20 -20 -20 5 2 -20 -5 5 20 -11 -2 3 -10 -20 -11 -20 1 -20 -20
-20 -20 -20 -20 -20 -20 -20 -20 -20 -20 -20 -20 -20 -20 -20 -20 -20 -20 -20 -20 -20 -20 -20 -20 -20 -20 -20 -20 -6 -6 -5 -7 -16 -9 7 -6 20 -20 -19 -20 16 16 -13
-20 -20 -20 -20 -20 -20 -20 -20 -20 -20 -20 -20 -20 -20 -20 -20 -20 -20 -20 -20 -20 -20 -20 -20 -20 -20 -20 -20 -20 -16 -20 -20 -1 -20 -5 5 -20 -20 -20 -20 -20 -12 -12
-20 -20 -20 -20 9 -20 -20 -20 -20 -20 -20 -20 -20 -20 -20 -20 -20 -20 -20 -20 -20 -20 -20 -20 -20 -20 -20 -20 -19 -20 -4 -20 9 15 -20 -14 -19 -18 10 -20 2 1 -18
-20 -19 -20 -6 -16 -20 20 -7 -0 -20 -9 -0 -20 -20 -20 -20 -14 -20 -20 -20 -20 -20 -20 -20 -20 -20 -20 -15 7 7 1 -15 -0 -18 -19 7 15 3 -1 -19 -13 -11 9
Wind_Speed
2 6 11 10 9 10 10 10 10 9 9 10 11 11 10 10 10 10 10 11 10 11 11 12 12 13 13 14 14 14 15 15 15 15 12 11 12 14 14 12 11 11 18
10 7 11 10 10 10 11 10 8 9 8 8 9 10 10 9 10 10 9 10 10 10 11 11 11 13 13 13 13 12 13 14 14 13 12 10 9 9 13 11 12 13 17
11 9 9 9 9 9 9 10 9 8 8 7 8 8 9 10 8 9 9 8 9 10 10 9 11 13 12 12 11 10 10 11 10 11 11 5 5 15 14 11 11 16 17
13 9 7 9 8 9 8 9 8 8 7 8 7 6 7 10 9 8 8 8 6 8 11 11 10 13 12 10 9 8 8 7 7 8 4 4 6 12 14 13 12 13 16
11 9 8 9 8 7 7 7 7 7 6 6 6 6 6 8 9 9 7 6 6 10 10 11 11 11 11 9 7 7 5 5 4 3 3 3 5 8 12 13 13 14 14
7 8 9 8 7 7 7 6 6 6 6 5 6 7 6 7 8 7 7 6 7 9 10 11 11 11 10 9 7 4 3 3 3 4 7 7 5 9 11 13 11 14 14
7 7 7 9 8 7 6 6 5 4 4 5 5 6 6 6 7 7 7 7 7 9 10 11 10 10 10 8 7 5 3 1 2 5 5 6 6 12 15 15 13 15 15
10 7 7 9 9 7 6 5 5 4 4 4 4 5 7 6 6 6 7 8 9 9 9 10 10 9 9 9 8 5 3 3 4 2 4 5 11 11 12 12 13 12 14
8 7 6 6 8 9 9 7 5 3 2 4 5 5 6 7 7 8 7 8 8 9 9 9 10 10 9 8 7 6 4 0 2 1 4 4 9 11 10 11 12 10 10
5 5 6 5 5 5 5 9 8 5 4 4 5 6 7 7 6 8 9 9 9 10 10 10 10 10 9 7 7 7 4 1 1 3 3 3 10 11 9 10 11 9 9
1 3 3 3 4 5 6 6 7 7 6 6 6 7 6 4 5 6 6 9 10 11 11 11 11 11 10 9 7 6 4 2 3 3 3 7 10 11 10 8 10 10 9
4 4 5 4 3 3 4 4 3 4 4 4 5 5 4 5 5 6 7 10 11 11 11 12 11 10 8 4 3 5 2 3 4 4 4 11 8 10 9 9 11 11 11
7 4 6 5 4 3 2 2 1 1 2 3 5 6 5 4 4 4 3 4 4 8 4 6 6 4 6 4 4 4 4 4 3 3 6 15 14 11 10 9 9 11 11
7 8 6 6 5 4 2 2 2 1 1 1 2 4 3 2 3 3 4 5 5 4 5 5 3 4 6 6 6 6 6 4 4 3 5 13 12 14 14 12 10 10 11
7 7 8 7 5 5 4 3 2 2 2 2 1 2 3 1 3 2 2 2 3 4 4 5 5 6 6 7 6 7 7 7 6 3 4 13 14 12 13 13 12 12 12
8 8 7 7 7 6 4 4 3 2 3 1 1 2 2 3 1 2 2 3 3 4 4 5 6 6 6 6 7 6 6 7 6 6 4 7 12 12 10 12 13 14 15
8 8 9 8 8 7 6 5 3 3 3 2 2 3 3 3 3 2 2 2 3 2 5 5 5 4 4 5 7 5 5 6 5 7 6 5 6 10 10 11 12 15 16
7 9 8 6 8 7 6 4 4 3 3 3 3 3 4 5 5 4 2 2 1 1 1 2 3 5 5 5 4 5 4 3 3 4 5 6 6 5 7 10 10 14 16
11 9 8 8 8 7 5 4 4 3 3 3 3 3 4 4 5 4 3 3 2 2 2 2 2 3 6 5 7 6 5 4 4 3 3 5 8 7 5 8 9 10 11
9 9 9 7 8 7 4 3 1 2 2 3 3 4 4 3 5 4 3 3 3 1 2 2 3 3 3 4 4 3 4 4 4 4 4 6 8 8 8 7 5 5 10
5 7 8 8 7 4 2 2 1 3 2 2 3 4 4 3 4 5 4 4 4 4 4 4 2 4 3 3 2 2 2 3 4 3 3 5 9 8 7 5 5 4 3
3 2 4 5 6 4 3 2 2 3 3 2 2 3 3 4 4 4 4 4 5 3 4 4 4 2 3 4 2 2 2 2 3 4 4 4 5 4 7 8 7 6 5
13 8 2 3 5 3 5 2 2 2 2 0 2 3 4 4 4 5 5 4 4 2 4 4 4 5 3 3 5 3 2 3 2 2 7 3 5 4 5 8 9 7 6
23 25 13 5 2 2 5 3 3 2 3 3 3 3 4 6 6 6 6 5 4 2 2 3 3 4 3 5 4 3 2 1 3 1 2 3 5 5 6 6 8 9 8
23 23 21 26 11 3 4 4 3 4 3 3 3 5 6 5 6 6 7 6 5 4 4 4 4 4 4 3 3 2 4 2 1 2 3 5 2 4 6 8 8 8 10
22 23 22 25 21 21 4 6 6 8 7 6 5 4 3 2 3 6 7 6 6 5 5 4 5 4 4 5 4 5 5 4 5 3 3 6 11 5 6 5 7 8 8
Wind_Direction
147 142 124 123 116 97 101 123 133 133 136 132 128 122 119 114 110 111 112 114 107 111 111 106 103 101 102 101 99 100 101 98 97 93 90 97 101 101 105 90 82 107 107
141 139 128 124 120 112 103 100 120 131 140 140 139 136 133 125 122 119 118 123 119 116 123 116 116 111 107 106 102 100 106 110 106 102 94 83 81 108 103 93 93 106 105
133 137 130 124 119 111 109 103 100 124 141 145 148 154 155 138 134 129 129 131 130 126 135 124 117 110 112 111 110 112 116 120 121 122 115 102 82 107 114 106 99 102 102
132 128 126 126 123 121 119 113 108 104 131 147 160 167 158 149 148 142 140 135 132 137 126 126 117 115 115 113 118 128 127 121 129 126 100 125 111 115 122 123 116 108 104
111 117 119 127 130 130 132 129 126 122 120 130 156 162 159 160 162 157 155 135 124 125 125 134 130 124 121 118 127 150 145 144 126 176 217 148 131 142 140 133 127 120 118
113 119 116 115 120 127 127 134 141 140 141 142 145 165 168 177 180 176 169 159 149 126 138 143 140 134 133 133 136 154 198 167 66 334 114 147 135 163 168 139 129 137 133
126 123 116 121 147 135 129 133 136 149 155 155 160 165 172 186 194 195 188 176 157 149 151 155 150 145 145 148 152 158 256 304 31 11 115 108 114 111 126 131 128 132 123
140 142 129 129 129 141 138 134 139 146 162 174 180 187 188 189 190 196 199 189 170 163 163 169 160 159 159 160 163 171 231 342 4 333 131 113 127 119 118 113 105 106 114
130 129 136 146 150 151 152 148 146 145 157 189 201 207 204 193 200 201 196 191 181 174 179 176 165 167 170 168 164 169 219 356 343 152 131 128 139 128 121 112 112 118 115
105 111 143 175 164 161 158 156 154 167 188 214 217 213 212 211 208 202 196 197 183 182 182 173 171 171 174 170 168 176 202 146 325 136 124 148 145 140 142 142 139 141 138
111 147 154 148 150 167 171 180 166 175 193 206 218 216 211 206 216 205 195 195 192 185 185 181 179 176 180 179 180 187 200 165 162 153 158 165 159 154 151 166 157 157 164
223 235 215 190 180 146 155 182 187 186 200 198 209 218 206 203 205 199 198 197 193 189 186 188 185 184 176 177 182 190 210 204 192 188 162 169 186 164 166 179 170 174 178
214 231 210 200 191 179 195 159 165 148 234 221 206 209 208 214 215 204 197 197 189 189 183 191 185 180 179 174 187 196 216 202 225 209 187 175 181 180 175 180 189 184 181
207 210 191 194 181 189 186 193 210 190 175 215 263 189 154 210 219 189 186 190 184 170 177 177 179 181 190 195 192 200 216 212 204 212 205 176 183 182 182 185 194 198 186
214 217 200 185 194 201 197 199 223 224 183 216 242 293 89 174 117 127 117 155 191 160 182 185 182 191 197 208 213 201 217 227 213 204 188 194 172 187 187 191 196 198 193
219 223 211 194 190 186 196 205 217 221 246 228 227 238 186 131 158 180 157 192 214 200 196 190 190 192 199 201 217 211 220 232 223 181 178 183 175 179 190 202 206 200 198
210 198 194 191 187 185 195 199 211 228 216 227 235 234 222 162 137 166 213 210 219 229 200 194 197 191 186 198 214 209 213 231 229 175 185 170 179 179 185 201 216 208 205
203 198 198 181 179 182 190 199 199 214 230 225 234 246 224 189 163 133 133 200 247 333 255 189 183 197 211 199 207 223 204 157 112 101 205 170 174 179 190 204 218 220 212
196 190 191 182 177 184 189 194 202 214 212 228 240 231 223 205 172 153 157 205 219 251 269 259 217 184 208 208 212 206 215 206 215 137 138 221 181 180 181 192 204 210 217
195 185 167 167 170 175 171 171 212 233 250 235 237 228 205 182 171 162 177 198 174 166 229 247 235 197 182 208 224 217 235 181 172 181 185 206 202 185 183 180 184 213 213
183 162 171 158 177 141 137 150 230 228 232 255 243 239 209 192 184 178 190 199 199 192 207 212 222 216 246 178 162 220 269 266 220 193 192 187 219 181 172 179 178 185 210
63 104 142 160 160 165 149 180 172 190 229 207 215 254 231 207 199 177 185 202 210 210 224 223 203 195 219 189 175 124 211 259 225 222 210 205 212 191 176 175 180 178 175
7 0 41 201 186 176 182 128 74 36 14 332 266 248 232 208 225 223 206 200 216 204 225 227 221 201 209 238 210 158 165 224 153 210 211 218 206 185 183 178 179 180 176
6 357 354 7 334 245 186 162 172 193 221 237 250 244 231 217 212 212 207 195 199 199 264 256 230 222 179 213 236 201 151 217 191 198 272 206 215 199 182 179 181 179 173
10 1 357 358 330 329 179 181 188 264 248 266 272 276 249 225 208 204 190 192 202 204 226 249 289 258 223 195 190 173 207 168 119 163 200 189 202 220 206 189 188 186 186
8 6 357 354 348 350 271 203 206 205 227 252 275 280 277 241 213 213 203 196 197 200 206 226 244 254 264 252 223 206 194 193 201 159 231 210 204 206 200 191 197 188 188